FOX-1CLIFF (AO-95) (43770 NORAD) Tracking and Keplerian Element Data

This shows tracking and keplerian element data for the satellite.

Feedback or suggestion? Click here.




ElementValue
Catalog43770
NameFOX-1CLIFF (AO-95)
Epoch Orbit21638
Epoch Day324.68758047
Epoch Year2022
RAAN26.9045
Inclination97.6044
Eccentricity0.0015103
Argument of Perigee109.3801
Mean Anonmoly250.9055
Mean Motion14.97304245
Decay Rate1.973E-05
L11 43770U 18099N 22324.68758047 .00001973 00000+0 17472-3 0 9999
L22 43770 97.6044 26.9045 0015103 109.3801 250.9055 14.97304245216386



Live tracking and technical data element details for FOX-1CLIFF (AO-95) (NORAD 43770). FOX-1CLIFF (AO-95) can be tracked NOW for your location showing map with azimuth and elevation plus other details from your city location.







IsCatalogInMostPopularTable: catalog: 43770, numindb: 363
Update: records affected: 1



GetName: 43770 FOX-1CLIFF (AO-95)

Hit Count: updated at: Mon, 28 Nov 2022 05:31:26 GMT